Regional Weather Roundup
Issued by NWS

Home | Current Version | Previous Version | Graphics & Text | Print | Product List | Glossary On
Versions: 1 2 3 4 5 6 7 8 9 10 11 12 13 14 15 16 17 18 19 20 21 22 23 24 25 26 27 28 29 30 31 32 33 34 35 36 37 38 39 40 41 42 43 44 45 46 47 48 49 50
000
ASUS43 KDTX 230010
RWRMI
MICHIGAN HOURLY REGIONAL WEATHER ROUNDUP
NATIONAL WEATHER SERVICE DETROIT/PONTIAC MI
ISSUED BY NATIONAL WEATHER SERVICE GRAND RAPIDS MI
800 PM EDT MON MAY 22 2017

NOTE: "FAIR" INDICATES FEW OR NO CLOUDS BELOW 12,000 FEET WITH NO
SIGNIFICANT WEATHER AND/OR OBSTRUCTION TO VISIBILITY.

MIZ047>049-052>055-059>063-066>070-074>076-081>083-230100-
SOUTHEAST LOWER MICHIGAN

CITY           SKY/WX    TMP DP  RH WIND       PRES   REMARKS
ADRIAN         CLEAR     67  46  47 W7        29.98S
6HR MIN TEMP:  64; 6HR MAX TEMP:  69;

ALMA           CLOUDY    63  45  52 SW6       29.93S
ANN ARBOR      CLEAR     65  47  52 SW10      29.96R
BAD AXE        CLEAR     63  43  47 W12G17    29.92R
6HR MIN TEMP:  57; 6HR MAX TEMP:  65;

DETROIT CITY   PTCLDY    68  44  42 W12       29.95S
6HR MIN TEMP:  65; 6HR MAX TEMP:  71;

DETROIT        PTCLDY    68  46  45 SW13      29.96S
6HR MIN TEMP:  66; 6HR MAX TEMP:  71;

FLINT          CLOUDY    64  45  49 W6        29.94R
6HR MIN TEMP:  64; 6HR MAX TEMP:  68;

GROSSE ILE     CLEAR     67  46  47 W7        29.96R
6HR MIN TEMP:  65; 6HR MAX TEMP:  70;

HILLSDALE      CLEAR     63  45  51 SW6       29.97S
HOWELL         CLOUDY    64  44  48 W5        29.95S
6HR MIN TEMP:  64; 6HR MAX TEMP:  68;


CITY           SKY/WX    TMP DP  RH WIND       PRES   REMARKS
JACKSON        PTCLDY    66  45  46 SW10      29.96S
6HR MIN TEMP:  64; 6HR MAX TEMP:  69;

LANSING        CLOUDY    66  44  45 W6        29.94F
6HR MIN TEMP:  65; 6HR MAX TEMP:  69;

MASON          CLOUDY    65  48  53 CALM      29.95S
MONROE         CLEAR     68  45  44 W12       29.96S
6HR MIN TEMP:  66; 6HR MAX TEMP:  71;

MT. CLEMENS    PTCLDY    68  43  40 SW12      29.92S
6HR MIN TEMP:  65; 6HR MAX TEMP:  70;

PONTIAC        MOCLDY    66  44  45 SW9       29.94R
6HR MIN TEMP:  63; 6HR MAX TEMP:  69;

PORT HOPE        N/A     65  42  43 SW8       29.89R
6HR MIN TEMP:  57; 6HR MAX TEMP:  66;

PORT HURON     CLEAR     66  41  39 W5        29.94R
TRI CITIES     MOCLDY    64  46  52 W10       29.92S
6HR MIN TEMP:  62; 6HR MAX TEMP:  67;

YPSILANTI      CLEAR     69  48  47 SW10      29.96S
6HR MIN TEMP:  66; 6HR MAX TEMP:  72;

$$
MIZ043>046-050>051-056>058-064>065-071>073-077>080-230100-
SOUTHWEST LOWER MICHIGAN

CITY           SKY/WX    TMP DP  RH WIND       PRES   REMARKS
BATTLE CREEK   PTCLDY    66  47  50 SW7       29.95S
6HR MIN TEMP:  65; 6HR MAX TEMP:  70;

BENTON HARBOR  CLOUDY    70  43  37 S13G18    29.91F
6HR MIN TEMP:  65; 6HR MAX TEMP:  73;

BIG RAPIDS     CLOUDY    59  45  58 SW9G16    29.90S
6HR MIN TEMP:  59; 6HR MAX TEMP:  64;

COLDWATER      CLEAR     66  46  48 SW6       29.96S
6HR MIN TEMP:  65; 6HR MAX TEMP:  69;

HOLLAND        CLOUDY    66  46  48 S7        29.91F
6HR MIN TEMP:  61; 6HR MAX TEMP:  68;

GRAND RAPIDS   PTSUNNY   65  46  50 S5        29.91F
6HR MIN TEMP:  63; 6HR MAX TEMP:  68;

KALAMAZOO      MOCLDY    68  44  42 SW7       29.94S
6HR MIN TEMP:  65; 6HR MAX TEMP:  71;

MARSHALL       MOCLDY    66  46  48 S6        29.94S
6HR MIN TEMP:  65; 6HR MAX TEMP:  69;

MOUNT PLEASANT PTCLDY    63  44  50 SW12      29.91S
6HR MIN TEMP:  63; 6HR MAX TEMP:  67;

MUSKEGON       CLOUDY    63  45  51 S7        29.88F
6HR MIN TEMP:  59; 6HR MAX TEMP:  63; 6HR PCP: TRACE;

STURGIS        PTCLDY    65  48  53 SW10      29.95F
6HR MIN TEMP:  64; 6HR MAX TEMP:  68;

$$
MIZ016>042-230100-
NORTHERN LOWER MICHIGAN

CITY           SKY/WX    TMP DP  RH WIND       PRES   REMARKS
ALPENA         CLEAR     62  42  47 W7        29.88R
6HR MIN TEMP:  54; 6HR MAX TEMP:  63;

BEAVER ISLAND  RAIN      53  45  72 SW6       29.84R
6HR MIN TEMP:  48; 6HR MAX TEMP:  56;

BELLAIRE       SUNNY     63  43  47 S8        29.82F
6HR MIN TEMP:  54; 6HR MAX TEMP:  64;

CADILLAC       SUNNY     60  45  57 SW9       29.87F
CHARLEVOIX     CLOUDY    60  45  57 S5        29.85F
6HR MIN TEMP:  54; 6HR MAX TEMP:  61;

GAYLORD        MOSUNNY   61  41  47 SW12      29.85F
6HR MIN TEMP:  52; 6HR MAX TEMP:  62;

HOUGHTON LAKE  MOSUNNY   62  45  53 SW8       29.89S
6HR MIN TEMP:  53; 6HR MAX TEMP:  63;

MANISTEE       SUNNY     62  47  57 S15       29.84F
OSCODA         CLEAR     65  38  36 W12       29.88R
6HR MIN TEMP:  56; 6HR MAX TEMP:  67;

PELLSTON       CLOUDY    58  42  55 CALM      29.84F
6HR MIN TEMP:  50; 6HR MAX TEMP:  60;

TRAVERSE CITY  MOSUNNY   65  45  48 SW12G21   29.82F
6HR MIN TEMP:  57; 6HR MAX TEMP:  67;

LUDINGTON      CLOUDY    59  48  67 SW9       29.87S
6HR MIN TEMP:  56; 6HR MAX TEMP:  63;

$$
MIZ007>008-015-230100-
EASTERN UPPER MICHIGAN

CITY           SKY/WX    TMP DP  RH WIND       PRES   REMARKS
KINROSS        CLOUDY    53  45  74 W6        29.85R
6HR MIN TEMP:  47; 6HR MAX TEMP:  53; 6HR PCP: TRACE;

MACKINAC ISLAN CLOUDY    52  44  73 SW7       29.85R
6HR MIN TEMP:  46; 6HR MAX TEMP:  53;

NEWBERRY       PTSUNNY   51  44  78 SW9       29.83R
6HR MIN TEMP:  50; 6HR MAX TEMP:  54; 6HR PCP:  0.06;

S. S. MARIE    CLOUDY    50  47  89 W3        29.85R
6HR MIN TEMP:  50; 6HR MAX TEMP:  53; 6HR PCP:  0.14;

$$
MIZ004>006-011>014-085-230100-
CENTRAL UPPER MICHIGAN

CITY           SKY/WX    TMP DP  RH WIND       PRES   REMARKS
MANISTIQUE     LGT RAIN  46  43  90 SW6       29.83S
6HR MIN TEMP:  46; 6HR MAX TEMP:  57;

ESCANABA       LGT RAIN  49  48  97 CALM      29.82S
6HR MIN TEMP:  49; 6HR MAX TEMP:  61; 6HR PCP:  0.11;

MENOMINEE      LGT RAIN  55  48  77 NE6       29.82R
6HR MIN TEMP:  55; 6HR MAX TEMP:  66; 6HR PCP:  0.01;

SAWYER-GWINN   CLOUDY    54  41  62 W6        29.81R
$$
MIZ001>003-009>011-084-230100-
WESTERN UPPER MICHIGAN

CITY           SKY/WX    TMP DP  RH WIND       PRES   REMARKS
IRON MOUNTAIN  CLOUDY    57  40  52 NW10      29.80S
6HR MIN TEMP:  55; 6HR MAX TEMP:  59; 6HR PCP: TRACE;

HOUGHTON       CLOUDY    52  41  66 W12       29.79S
6HR MIN TEMP:  50; 6HR MAX TEMP:  53;

COPPER HARBOR    N/A     53  43  68 VRB3      29.78S
6HR MIN TEMP:  49; 6HR MAX TEMP:  54;

IRONWOOD       CLOUDY    52  45  77 SW5       29.83R
6HR MIN TEMP:  49; 6HR MAX TEMP:  53; 6HR PCP:  0.01;

$$

ABBREVIATIONS USED IN REMARKS
   TC - TEMPERATURE IN CELSIUS
  WCI - WIND CHILL INDEX
   HX - HEAT INDEX
  VSB - VISIBILITY





USA.gov is the U.S. government's official web portal to all federal, state and local government web resources and services.